Ellington Field, TX

8:04 AM CDT on May 24, 2017 (GMT -0500)
Ellington

Weather History for KEFD - July, 2013

Change the Weather History Date:

Wednesday, July 3, 2013

  Actual Average Record
Temperature  
Mean Temperature 86 °F -  
Max Temperature 98 °F 89 °F 98 °F (2011)
Min Temperature 75 °F 73 °F 73 °F (2000)
Cooling Degree Days 22    
Growing Degree Days 36 (Base 50)    
Moisture  
Dew Point 64 °F    
Average Humidity 51    
Maximum Humidity 69    
Minimum Humidity 32    
Precipitation  
Precipitation 0.00 in - - ()
Sea Level Pressure  
Sea Level Pressure 29.99 in    
Wind  
Wind Speed 3 mph (East)    
Max Wind Speed 12 mph    
Max Gust Speed 16 mph    
Visibility 10 miles    
Events      
Averages and records for this station are not official NWS values.
T = Trace of Precipitation, MM = Missing Value Source: NWS Daily Summary

Daily Weather History Graph

Daily Weather History Graph

Search for Another Location

Airport or City:

Trip Planner

Search our weather history database for the weather conditions in past years. The results will help you decide how hot, cold, wet, or windy it might be!

Date:

Astronomy

Jul. 03, 2013 Rise Set
Actual Time 6:24 AM CDT 8:24 PM CDT
Civil Twilight 5:57 AM CDT 8:51 PM CDT
Nautical Twilight 5:24 AM CDT 9:24 PM CDT
Astronomical Twilight 4:49 AM CDT 9:59 PM CDT
Moon 2:54 AM CDT (7/3) 4:42 PM CDT (7/3)
Length of Visible Light 14h 54m
Length of Day
13h 59m
Waning Crescent, 18% of the Moon is Illuminated
Jul 3
Waning Crescent
Jul 8
New
Jul 15
First Quarter
Jul 22
Full
Jul 29
Last Quarter

Hourly Weather History & Observations

Time (CDT) Temp. Heat Index Dew Point Humidity Pressure Visibility Wind Dir Wind Speed Gust Speed Precip Events Conditions
12:50 AM 78.8 °F - 66.2 °F 65% 30.02 in 10.0 mi Calm Calm - N/A   Scattered Clouds
1:50 AM 77.0 °F - 62.6 °F 61% 30.02 in 10.0 mi Calm Calm - N/A   Scattered Clouds
2:50 AM 77.0 °F - 66.2 °F 69% 30.02 in 10.0 mi Calm Calm - N/A   Scattered Clouds
3:50 AM 75.2 °F - 64.4 °F 69% 30.01 in 10.0 mi Calm Calm - N/A   Scattered Clouds
4:50 AM 75.2 °F - 64.4 °F 69% 30.01 in 10.0 mi Calm Calm - N/A   Scattered Clouds
5:50 AM 75.2 °F - 64.4 °F 69% 30.02 in 10.0 mi North 4.6 mph - N/A   Scattered Clouds
6:50 AM 75.2 °F - 64.4 °F 69% 30.01 in 10.0 mi Calm Calm - N/A   Partly Cloudy
7:50 AM 77.0 °F - 66.2 °F 69% 30.02 in 10.0 mi NE 3.5 mph - N/A   Partly Cloudy
8:50 AM 84.2 °F 87.3 °F 68.0 °F 58% 30.03 in 10.0 mi Calm Calm - N/A   Partly Cloudy
9:50 AM 86.0 °F 87.3 °F 64.4 °F 48% 30.02 in 10.0 mi Calm Calm - N/A   Partly Cloudy
10:50 AM 87.8 °F 88.5 °F 62.6 °F 43% 30.03 in 10.0 mi Calm Calm - N/A   Partly Cloudy
11:50 AM 91.4 °F 93.2 °F 64.4 °F 41% 30.02 in 10.0 mi NE 3.5 mph - N/A   Scattered Clouds
12:50 PM 95.0 °F 98.5 °F 66.2 °F 39% 30.00 in 10.0 mi ENE 8.1 mph - N/A   Scattered Clouds
1:50 PM 95.0 °F 97.0 °F 64.4 °F 36% 29.99 in 10.0 mi East 8.1 mph - N/A   Scattered Clouds
2:50 PM 98.6 °F 101.0 °F 64.4 °F 32% 29.98 in 10.0 mi ESE 11.5 mph - N/A   Mostly Cloudy
3:50 PM 98.6 °F 102.8 °F 66.2 °F 35% 29.96 in 10.0 mi ESE 9.2 mph 16.1 mph N/A   Mostly Cloudy
4:50 PM 96.8 °F 99.0 °F 64.4 °F 34% 29.94 in 10.0 mi East 11.5 mph - N/A   Mostly Cloudy
5:50 PM 95.0 °F 96.0 °F 62.6 °F 34% 29.94 in 10.0 mi ESE 11.5 mph - N/A   Mostly Cloudy
6:50 PM 91.4 °F 91.4 °F 60.8 °F 36% 29.93 in 10.0 mi ESE 9.2 mph - N/A   Mostly Cloudy
7:50 PM 89.6 °F 88.9 °F 59.0 °F 36% 29.93 in 10.0 mi ESE 6.9 mph - N/A   Mostly Cloudy
8:50 PM 86.0 °F 86.1 °F 60.8 °F 43% 29.95 in 10.0 mi SSE 4.6 mph - N/A   Scattered Clouds
9:50 PM 82.4 °F 83.4 °F 62.6 °F 51% 29.96 in 10.0 mi Calm Calm - N/A   Scattered Clouds
10:50 PM 80.6 °F 82.7 °F 66.2 °F 61% 29.97 in 10.0 mi Calm Calm - N/A   Scattered Clouds
11:50 PM 80.6 °F 82.3 °F 64.4 °F 58% 29.98 in 10.0 mi Calm Calm - N/A   Partly Cloudy